Weather in Sant Feliu de Guixols

Spain     41°46′49″N   3°01′37″E
temp.,
°C
wind,
m/s
gust,
m/s
humid.,
%
clouds,
%
prec.,
mm/h
press.,
hPa
HPBL,
m
9 may, sun
sun923:00+15ssw4692100 0.0 1015131
02:00+15ssw3491100 0.0 101456
05:00+15ssw2391100 0.0 101334
08:00+16ese238795 0.0 101389
11:00+18ese367688 0.0 1012427
14:00+19e477653 0.0 1010532
17:00+18e3483100 0.0 1007365
20:00+18ssw588994 0.0 1006287
10 may, mon
mon1023:00+16sw5796100 0.0 1008130
02:00+15sw4593100 0.0 100886
05:00+15sw34929 0.0 100855
08:00+15s2387100 0.0 100943
11:00+17ssw4781100 0.1 1010397
14:00+18ssw7967100 0.2 1009690
17:00+18ssw912750 0.1 1008623
20:00+16ssw712830 0.1 1009600
11 may, tue
tue1123:00+15sw5991100 0.0 1010259
02:00+16sw61180100 0.0 1008524
05:00+15sw411777 0.1 1008527
08:00+15wsw458436 0.1 1007189
11:00+15e667258 0.3 1010734
14:00+15ese787494 2.4 10111103
17:00+10nne359096 9.1 1015327
20:00+13w227915 9.6 1016166
12 may, wed
wed1223:00+11wsw34850 0.0 1018221
02:00+10w33883 0.0 1018103
05:00+10n33885 0.0 101776
08:00+10nnw228517 0.0 1017109
11:00+14ssw346996 0.0 1015681
14:00+18ssw695025 0.0 10131015
17:00+19sw794913 0.0 10101384
20:00+17nnw51062100 0.0 1011279
13 may, thu
thu1323:00+16nne4958100 0.0 1013275
02:00+15n116595 0.0 101321
05:00+12nnw227325 0.0 101345
08:00+13nnw346928 0.0 1013174
11:00+17e1254100 0.0 1013785
14:00+14ene2372100 0.8 1014465
17:00+12ene2392100 5.4 1014200
20:00+12e2388100 6.2 1014185